SCP
1 1 1 2 1 2 2 2 3 2 2 2 2 1 1 1 1 1 1 1 1 1 1 1 1 1 1 1 1 1 1 1 1 1 1 1 1 1 1 1 1 1 1
1 1 2 2 1 2 2 2 2 2 2 2 2 1 1 1 1 1 1 1 1 1 1 1 1 1 1 1 1 1 1 1 1 1 1 0 0 1 1 1 1 1 1
1 2 2 2 2 2 2 2 2 2 2 2 2 2 1 1 1 1 1 1 1 1 1 1 1 1 1 1 1 1 1 1 0 0 0 0 0 0 1 1 1 1 1
1 2 2 3 2 2 2 2 2 2 2 2 2 2 2 1 1 1 1 1 1 1 1 1 1 1 1 1 1 1 1 1 1 0 0 0 0 1 1 1 1 1 0
1 1 2 2 3 3 2 2 2 2 2 2 2 2 2 1 1 1 1 1 1 1 1 1 1 1 1 1 1 1 1 1 1 0 0 0 0 1 1 1 1 1 1
1 1 2 2 3 3 3 3 3 2 2 3 3 2 2 2 2 2 2 2 1 1 1 1 2 2 1 1 1 1 1 1 1 0 0 0 0 1 1 1 1 1 1
1 1 2 2 2 3 3 3 3 3 2 2 3 3 2 2 2 2 2 2 2 1 1 1 1 1 1 1 1 1 1 1 1 1 0 0 0 1 1 1 1 1 1
2 2 2 2 2 3 3 3 3 3 3 2 2 2 2 2 2 2 2 2 2 1 1 1 1 1 2 2 2 1 1 1 1 0 0 0 0 1 1 1 1 1 1
2 2 2 2 2 2 3 3 3 3 2 2 2 2 2 2 2 2 2 2 2 1 1 1 1 1 1 2 1 1 1 1 1 0 0 0 0 1 1 1 1 1 1
2 2 2 2 2 2 2 3 3 3 2 2 2 2 2 2 2 2 2 2 1 1 1 1 1 1 1 1 1 1 1 1 1 0 0 0 0 1 1 1 1 1 1
3 2 2 2 2 2 2 2 2 2 2 2 1 1 1 2 2 1 1 1 1 1 1 1 1 1 1 1 1 1 1 1 1 0 0 0 1 1 1 1 1 1 1
3 2 2 2 2 2 2 2 2 2 2 1 1 1 1 1 1 1 1 1 1 1 1 1 1 1 1 1 1 1 1 1 1 1 0 1 1 1 1 1 1 1 1
2 2 2 2 2 2 2 2 2 2 2 2 2 2 1 1 1 1 1 1 1 1 1 1 1 1 1 1 1 1 1 1 1 1 1 1 1 1 1 1 1 1 1
2 2 2 2 2 2 2 2 2 2 2 2 2 2 2 1 1 1 1 1 1 1 1 2 2 2 2 2 2 1 1 1 1 1 1 1 1 1 1 1 1 1 1
2 2 2 3 3 3 3 3 3 3 3 2 2 2 2 2 1 1 1 1 1 1 2 2 2 2 2 2 2 1 1 1 1 1 1 1 1 1 1 1 1 1 1
3 3 3 3 3 3 3 3 3 3 3 3 3 3 3 2 2 1 1 1 1 1 1 1 2 2 2 2 2 2 2 2 1 1 1 1 1 1 1 1 1 1 1
4 4 4 4 4 4 4 4 4 4 4 4 4 4 3 3 2 2 2 1 1 1 1 1 1 2 2 2 2 2 2 2 2 2 2 1 1 1 1 1 1 2 2
4 5 5 4 5 5 5 5 5 6 5 5 5 4 4 4 3 2 2 2 1 1 1 1 1 1 1 1 2 2 2 2 2 2 2 2 2 2 1 1 1 2 2
5 5 6 5 5 5 6 6 6 7 6 5 5 5 5 4 3 3 2 2 2 2 1 1 1 1 1 1 1 1 1 2 2 2 2 2 2 2 2 2 2 2 2
5 6 6 6 5 5 6 6 7 7 7 6 5 5 5 4 4 3 3 3 3 2 2 2 1 1 1 1 1 1 1 1 2 2 2 2 2 2 2 2 2 2 2
6 7 6 5 5 6 6 6 7 7 7 7 6 5 5 4 4 3 3 3 3 3 2 2 2 1 1 1 1 1 1 1 1 1 1 1 1 1 1 2 2 2 2
7 7 6 5 5 6 6 6 6 7 7 7 6 5 5 4 4 4 4 3 3 3 3 2 2 1 1 1 1 1 1 1 1 1 1 1 1 1 1 1 1 2 2
7 7 6 4 5 5 6 7 7 7 7 7 6 5 5 5 5 5 4 4 4 4 3 3 2 2 1 1 1 1 1 1 1 1 1 1 1 1 1 1 1 1 2
5 5 5 4 4 5 6 7 7 7 7 7 6 5 6 6 7 6 5 5 5 4 4 4 3 2 2 1 1 1 1 1 1 1 1 1 1 1 1 1 1 1 2
3 3 3 4 4 5 6 7 8 7 7 7 6 6 6 6 7 7 7 6 6 5 5 4 4 3 2 2 2 2 2 2 2 2 2 1 1 1 1 1 1 1 1
3 3 3 3 4 5 6 7 8 7 7 7 6 6 6 6 7 8 8 8 7 6 5 5 4 3 3 2 2 2 3 3 3 2 2 1 1 1 1 1 1 1 1
Wind_Speed
4 5 9 9 9 9 10 11 11 12 12 12 12 12 12 12 12 11 11 10 10 11 11 11 11 11 11 11 11 11 10 10 10 10 10 10 10 10 11 11 10 7 10
7 6 11 10 9 9 10 10 11 11 12 12 12 12 12 12 11 10 10 10 10 10 11 10 10 11 11 11 10 10 10 10 9 10 9 9 10 10 10 10 9 6 9
8 6 9 11 10 10 10 10 10 11 11 11 11 11 11 11 11 10 10 10 10 10 10 10 10 10 10 10 10 10 10 9 9 9 8 5 6 9 9 9 9 8 9
9 6 7 11 10 10 10 10 10 10 11 11 11 10 10 10 10 10 9 9 9 9 9 9 9 9 9 9 9 9 9 8 8 8 4 4 4 8 8 8 8 8 8
7 5 7 12 10 10 10 10 9 10 10 10 10 10 9 9 9 9 9 9 9 9 8 8 8 8 8 8 8 8 8 7 7 6 4 3 3 7 8 8 8 7 7
7 5 7 12 10 10 10 10 9 10 10 9 9 9 8 8 8 9 9 9 8 8 8 7 7 7 7 7 7 7 7 7 6 4 4 3 3 6 7 7 8 7 7
7 5 6 11 10 10 10 10 9 9 9 9 9 8 7 7 8 8 8 8 8 7 7 7 7 7 7 7 7 6 6 7 5 4 3 3 3 6 6 6 6 7 6
7 5 5 10 10 9 9 9 9 8 8 8 8 7 7 7 7 7 8 8 7 7 6 6 5 6 6 6 6 6 6 6 5 4 3 3 5 5 6 6 6 6 6
5 4 3 4 6 8 9 8 8 8 7 7 8 7 7 7 6 7 7 7 6 6 6 5 5 5 5 5 5 5 5 6 4 2 3 2 5 5 5 5 6 6 6
4 3 3 2 3 3 4 7 8 7 7 7 7 7 6 6 6 6 5 5 5 6 6 5 4 5 5 4 4 5 4 4 3 2 2 2 5 6 5 5 5 6 6
5 3 3 3 2 2 3 5 5 6 5 5 5 6 4 2 2 3 4 4 4 5 4 4 4 4 4 3 3 3 3 2 2 2 1 3 4 5 5 4 5 6 6
6 5 3 3 3 3 3 2 2 2 2 2 2 2 2 2 2 2 3 4 4 4 3 3 4 4 3 1 1 1 1 2 2 2 2 5 4 4 4 4 5 5 5
7 6 4 4 4 3 2 2 1 1 2 2 2 2 2 2 2 1 1 1 2 3 2 2 3 2 2 1 1 1 1 2 1 1 2 4 3 4 4 4 5 5 5
6 6 5 5 4 4 3 2 2 1 1 1 1 2 2 2 1 1 1 1 2 1 1 2 1 2 2 2 2 1 2 1 1 1 1 4 3 4 4 4 4 5 5
6 6 6 6 5 4 3 2 2 2 2 2 1 2 2 2 2 1 1 1 1 1 1 1 1 1 1 2 1 2 1 2 2 1 1 3 3 3 4 4 4 5 4
7 7 6 6 6 5 4 3 2 2 2 2 1 1 2 2 2 2 1 1 0 0 0 1 1 1 1 1 1 1 1 1 2 2 1 2 3 3 3 3 4 4 4
7 7 7 7 6 5 4 3 3 2 2 2 1 1 2 2 2 2 1 1 0 0 1 1 2 2 2 1 1 1 1 1 1 1 1 1 1 3 4 3 3 4 4
6 6 6 7 6 6 4 4 2 2 3 2 2 2 2 2 3 2 1 1 1 1 1 2 2 2 2 1 1 1 1 0 0 1 1 1 1 1 2 3 4 4 4
6 6 6 6 7 6 5 3 3 2 3 2 2 2 2 3 3 2 2 1 2 2 1 1 2 1 1 1 1 1 1 0 0 0 1 1 1 1 1 2 3 4 4
5 5 6 5 5 5 4 3 2 2 2 2 2 2 3 2 3 2 2 2 2 2 2 2 2 2 2 1 1 2 1 1 0 0 1 1 1 2 2 2 2 2 4
5 5 6 6 5 5 4 3 3 2 1 1 2 2 3 3 3 3 2 2 2 2 2 2 2 2 1 1 2 2 2 2 1 1 0 0 1 1 1 1 1 1 2
6 6 6 6 6 5 4 3 3 2 2 2 1 2 2 3 3 3 3 2 2 2 2 2 2 2 1 1 1 1 2 2 2 1 0 0 1 0 0 1 1 1 2
7 7 6 6 6 5 5 3 3 2 2 1 1 1 2 3 3 3 3 3 2 2 2 2 2 2 1 1 1 2 2 1 2 2 1 1 0 0 1 1 1 2 2
7 6 6 6 6 5 5 5 5 4 3 3 2 2 1 2 3 3 3 4 3 2 2 2 2 2 2 1 0 0 1 2 1 1 2 1 1 1 1 1 2 2 2
6 6 5 5 5 5 5 6 5 4 3 2 1 2 1 1 2 3 3 3 3 3 3 2 2 2 2 2 1 1 1 1 2 2 2 2 2 2 1 2 2 2 2
4 5 5 5 5 5 6 6 6 6 4 3 3 2 2 1 1 2 3 3 3 3 3 3 3 3 2 2 2 2 2 2 2 2 2 2 2 2 2 2 2 2 2
Wind_Direction
163 166 156 145 136 131 126 126 123 124 124 123 123 123 122 120 120 119 121 122 123 123 122 121 120 118 118 115 113 115 117 118 120 121 125 128 130 129 126 124 119 113 115
148 156 152 146 139 134 129 128 124 124 127 127 127 125 125 124 123 122 122 124 125 125 124 123 120 120 121 120 118 117 118 120 122 122 124 126 128 129 129 127 125 122 119
138 147 151 149 143 136 130 127 123 126 127 127 128 127 126 127 126 126 125 125 128 128 128 126 123 123 123 123 119 121 123 123 124 123 122 113 126 133 134 133 132 131 129
140 143 152 151 146 140 134 129 127 126 128 128 129 128 128 129 130 128 128 128 129 129 128 127 125 125 125 125 122 123 126 126 127 127 114 114 128 136 139 139 140 140 136
135 139 158 150 147 142 137 132 128 126 129 131 132 133 132 131 133 132 132 131 130 128 126 126 125 125 125 126 125 127 129 129 132 124 107 109 118 140 146 149 150 150 146
136 143 160 150 148 143 139 135 132 130 131 133 133 134 135 136 137 139 138 134 129 127 129 130 128 127 129 132 129 129 129 130 128 118 119 124 132 146 152 157 156 157 154
141 147 157 150 149 145 141 136 133 133 133 134 135 135 135 139 141 142 142 139 135 132 130 127 128 134 134 132 135 135 132 135 125 122 130 139 150 154 157 155 157 159 158
141 141 148 154 152 149 144 139 135 134 135 135 136 136 138 139 141 143 144 143 142 140 138 136 136 137 137 137 139 139 134 135 129 130 136 151 160 163 164 162 161 160 160
127 129 137 151 155 155 149 144 140 138 137 137 137 137 139 142 143 143 142 144 144 146 145 143 142 144 141 134 142 144 140 143 128 141 159 163 170 173 170 166 163 163 163
121 126 133 132 133 138 149 153 147 143 140 139 140 141 143 143 141 139 133 133 139 146 146 141 134 145 142 132 142 152 151 144 135 148 155 171 175 176 176 172 171 172 171
150 145 141 135 131 134 143 159 152 149 143 140 139 139 135 107 101 116 125 129 128 137 140 134 124 128 133 127 137 159 159 132 141 156 173 180 177 180 182 178 172 172 170
174 172 161 156 147 144 155 141 127 135 128 114 100 112 93 81 92 109 118 126 118 117 122 128 132 122 110 91 118 143 125 146 158 178 189 183 189 191 187 181 174 169 164
172 170 166 167 158 151 141 128 119 115 112 108 105 103 92 84 76 68 64 71 65 70 62 69 72 85 94 110 114 125 135 146 161 185 192 182 193 191 188 182 170 161 155
166 175 166 168 165 161 146 139 132 124 125 124 121 115 110 102 87 75 72 60 54 47 56 56 76 85 98 115 132 140 138 141 161 196 208 189 189 197 193 176 168 160 155
176 178 176 172 170 163 149 154 153 149 144 141 134 137 131 130 128 108 87 74 56 50 67 73 98 99 97 99 118 138 155 162 170 185 198 197 191 188 188 181 177 171 168
183 181 179 174 173 162 160 159 154 148 135 125 133 146 143 135 129 129 114 94 68 72 73 79 88 103 108 103 102 127 157 169 170 180 200 211 210 198 192 186 183 186 185
182 178 178 176 168 164 164 162 152 148 141 143 147 149 147 138 135 130 120 114 83 90 89 80 73 79 92 89 78 83 94 141 161 193 207 217 233 218 207 203 201 203 201
168 173 176 176 165 164 164 161 152 152 147 152 148 146 151 147 136 128 129 137 107 99 96 96 85 84 78 83 78 59 62 66 218 205 189 201 214 232 228 220 220 213 215
171 169 172 171 165 165 162 155 152 148 148 149 142 148 155 151 140 133 139 131 114 102 99 107 85 100 107 97 99 67 38 20 302 246 222 215 210 212 219 230 236 228 228
166 163 164 162 160 154 145 131 115 111 127 135 150 157 153 149 146 138 131 119 116 108 99 98 97 85 99 98 78 48 24 359 357 286 262 261 235 221 219 227 235 247 245
161 162 164 164 163 153 152 154 153 168 165 160 170 156 156 155 158 151 143 135 132 126 130 124 112 92 74 78 83 37 15 18 3 316 308 316 285 264 226 221 221 234 256
176 173 170 171 169 167 167 161 155 148 158 174 171 158 161 165 163 161 154 154 147 129 114 117 117 110 76 63 106 90 14 355 349 353 6 258 272 274 219 235 229 235 252
184 181 180 176 172 168 156 133 112 93 75 97 141 179 180 174 170 162 160 155 156 152 153 147 141 143 141 52 91 137 144 230 311 332 332 324 325 277 261 265 241 242 245
195 182 175 173 167 163 154 152 154 159 170 194 185 192 179 177 180 173 163 163 165 160 160 165 154 149 143 163 86 88 173 171 185 308 325 326 312 293 286 279 274 258 250
188 178 174 166 165 164 163 163 163 167 174 168 156 159 174 195 195 181 169 167 170 167 164 159 147 151 164 174 179 178 183 197 201 205 273 311 319 297 288 277 270 266 260
179 171 170 169 169 166 169 170 172 172 168 162 175 181 191 200 205 194 174 171 172 166 167 169 163 171 185 182 188 191 189 193 200 196 228 268 289 295 294 278 271 269 262